Regional Weather Roundup
Issued by NWS

Home | Current Version | Previous Version | Text Only | Print | Product List | Glossary On
Versions: 1 2 3 4 5 6 7 8 9 10 11 12 13 14 15 16 17 18 19 20 21 22 23 24 25 26 27 28 29 30 31 32 33 34 35 36 37 38 39 40 41 42 43 44 45 46 47 48 49 50
000
ASUS44 KLIX 231612
RWRLA
LOUISIANA WEATHER ROUNDUP
NATIONAL WEATHER SERVICE NEW ORLEANS LA
1100 AM CDT SAT MAY 23 2015

NOTE: "FAIR" INDICATES FEW OR NO CLOUDS BELOW 12,000 FEET WITH NO
      SIGNIFICANT WEATHER AND/OR OBSTRUCTIONS TO VISIBILITY.
      SKY/WX - SKY CONDITION AND SIGNIFICANT WEATHER.
      TMP - AIR TEMPERATURE.    DP   - DEWPOINT TEMPERATURE.
      RH  - RELATIVE HUMIDITY.  PRES - PRESSURE.
      HX  - HEAT INDEX.         WCI  - WIND CHILL INDEX.

*  THESE STATIONS ARE NOT NWS OR FAA STATIONS AND ARE NOT UNDER
   NWS QUALITY CONTROL.

LAZ040-048-061>063-065-066-069-231700-
SOUTHEAST LOUISIANA

CITY           SKY/WX    TMP DP  RH WIND       PRES   REMARKS
N.O. AUDUBON     N/A     87  70  57 MISG        N/A
N.O. INTL ARPT PTSUNNY   84  66  54 E13       30.21S
N.O. LAKEFRONT SUNNY     86  67  52 E12       30.22S
SLIDELL        SUNNY     84  71  65 VRB7      30.22S
BATON ROUGE    MOSUNNY   83  70  64 E12G20    30.22R
BOOTHVILLE     MOSUNNY   83  69  62 E8        30.22S
BELLE CHASSE   PTSUNNY   84  67  56 E10       30.21S
BOGALUSA*        N/A     83  62  48 E7        30.26R
GALLIANO*      SUNNY     85  69  58 MISG      30.21S
NEW ROADS*     FAIR      81  70  69 SE6       30.21F
GONZALES*      FAIR      83  69  62 E7        30.20S
HAMMOND*       SUNNY     84  64  51 SE6       30.24S
HOUMA*         MOSUNNY   84  72  65 E9        30.20S
PORT FOURCHON* SUNNY     82  70  65 E13G18    30.21S

$$

LAZ041-044-053-054-231700-
SOUTHWEST LOUISIANA

CITY           SKY/WX    TMP DP  RH WIND       PRES   REMARKS
LAKE CHARLES   MOSUNNY   83  74  74 E13       30.16F
LAFAYETTE      MOSUNNY   82  70  66 E7        30.19S
PATTERSON      MOSUNNY   82  72  69 SE13      30.20F
SALT POINT       N/A     84  73  69 E8        30.17S
NEW IBERIA     MOSUNNY   84  71  65 E12       30.19F
CHENAULT AIRPK NOT AVBL

$$

LAZ027-028-231700-
CENTRAL LOUISIANA

CITY           SKY/WX    TMP DP  RH WIND       PRES   REMARKS
FORT POLK      PTSUNNY   81  70  69 SE9       30.18F
ALEXANDRIA INT MOSUNNY   81  70  69 SE14      30.19S
ALEXANDRIA     PTSUNNY   82  69  64 SE9       30.21F

$$

LAZ001-002-231700-
NORTHWEST LOUISIANA

CITY           SKY/WX    TMP DP  RH WIND       PRES   REMARKS
SHREVEPORT     PTSUNNY   80  69  69 SE8       30.19F
BARKSDALE AFB  MOSUNNY   79  69  71 S9        30.19F
DTN SHREVEPORT PTSUNNY   78  68  71 SE9       30.20S

$$

LAZ014-016-231700-
NORTHEAST LOUISIANA

CITY           SKY/WX    TMP DP  RH WIND       PRES   REMARKS
MONROE         MOSUNNY   78  67  68 S6        30.24F
TALLULAH       SUNNY     80  62  54 E6        30.24F

$$




USA.gov is the U.S. government's official web portal to all federal, state and local government web resources and services.